COSMOS 886 DEB, 9807

Orbit data source: Space-Track

COSMOS 886 DEB, 9807 is space debris in LEO originally from a launch on Mon, 27 Dec 1976 UTC launched from the Tyuratam Missile And Space Complex (TTMTR). Debris objects in space refer to the collection of defunct objects orbiting the Earth. Examples of debris include non-operational satellites, rocket bodies, and fragments generated from explosions, collisions, or faulty payload assembly.

Loading next visibility...
Identifier
9807, 1976-126AA
Orbit
LEO
Country
Flag of CISCIS
Related business
Manufacturer
Unknown
Mission
Spacecraft
Bus & Motor
Unknown
Mass
Unknown
Launch date (UTC)
1976-12-27 (49 years ago)
Launch vehicle
Unknown
Launch site
Tyuratam Missile And Space Complex (TTMTR)
Object type
Payload
Rocket body
Debris
Shape & HBR
Unknown shape, 0.1 m
Radar Cross Section
Small (<0.1 m²)

Expand to show TLE details & history
Last TLE update: 11 hours ago

TLE from 11 hours ago
0 COSMOS 886 DEB
1  9807U 76126AA  26130.16847822  .00003204  00000-0  43196-3 0  9991
2  9807  65.7681  58.1673 0366250 221.0020 136.3014 14.43549016429424
Epoch: 2026-05-10T04:02Z
TLE epoch observation values (Epoch: 2026-05-10T04:02:36.518Z)
Latitude
-0.00004°
Longitude
129.53969°
Altitude
941.909 km
Speed
7.281 km/s
True Right ascension
03h 52m 40s
True Declination
0° 00' 00"
Sunlit
Object was in daylight at epoch
Visualization orbit readout
Latitude
Unknown
Longitude
Unknown
Altitude
Unknown
Speed
Unknown
Apparent Right ascension
Unknown
Apparent Declination
Unknown
Sunlit
N/A
Visualization observer readout
Local Sidereal Time
22:46:47
Azimuth
Unknown
Elevation
Unknown
Doppler factor
Unknown
Orbital elements
Apogee altitude
1,006.164 km
Perigee altitude
484.375 km
Semi-major axis
7,123.406 km
Eccentricity
0.03663
Inclination
65.7681°
RAAN
58.1673°
Arg. of periapsis
221.002°
True anomaly
139.10678°
Mean anomaly
136.3014°
Eccentric anomaly
137.71333°
Mean motion
3.61004 °/min
Orbital period
99.72 mins
BSTAR
0.00043196
Loading maneuver chart data...
Computing Atmospheric mass density...
Loading historical data...
Loading historical data...
Loading historical data...
Loading historical data...
Loading historical data...
Loading historical data...
Loading historical data...

Documentation

Showing up to 5 results
|